Regional Weather Roundup
Issued by NWS

Home | Current Version | Previous Version | Graphics & Text | Print | Product List | Glossary On
Versions: 1 2 3 4 5 6 7 8 9 10 11 12 13 14 15 16 17 18 19 20 21 22 23 24 25 26 27 28 29 30 31 32 33 34 35 36 37 38 39 40 41 42 43 44 45 46 47 48 49 50
000
ASUS43 KMKX 291100
RWRWI

WISCONSIN REGIONAL WEATHER ROUNDUP
NATIONAL WEATHER SERVICE MILWAUKEE/SULLIVAN WI
600 AM CDT FRI JUL 29 2016

NOTE: "FAIR" INDICATES FEW OR NO CLOUDS BELOW 12,000 FEET WITH NO
SIGNIFICANT WEATHER AND/OR OBSTRUCTIONS TO VISIBILITY.

WIZ001-002-006>008-014>016-023>028-291200-
NORTHWEST WISCONSIN

CITY           SKY/WX    TMP DP  RH WIND       PRES   REMARKS
SUPERIOR ARPT  FOG       47  47 100 CALM      30.11S VSB 1/4
ASHLAND        FOG       43  43 100 VRB5      30.12R VSB 1/2
HAYWARD        MOCLDY    48  46  93 NE6       30.11R FOG
SIREN          CLEAR     54  52  94 NE5       30.09S
CUMBERLAND     CLEAR     54  50  87 N3        30.08S
RICE LAKE      CLEAR     55  52  92 CALM      30.09S
CHETEK         CLEAR     57  55  92 N3        30.07S
LADYSMITH      PTCLDY    53  52  95 N5        30.09S
EAU CLAIRE     NOT AVBL
MENOMONIE      CLOUDY    62  57  86 N3        30.05S
NEW RICHMOND   CLEAR     56  55  96 N5        30.07R
OSCEOLA        CLEAR     55  55 100 CALM      30.10S
$$

WIZ003>005-009-010-017-018-291200-
NORTH CENTRAL WISCONSIN

CITY           SKY/WX    TMP DP  RH WIND       PRES   REMARKS
MANITOWISH WTR CLEAR     46  46 100 CALM      30.11R
ARBOR VITAE    FOG       49  48  95 CALM      30.10S VSB 3/4
WOODRUFF       FOG       49  48  95 CALM      30.10S VSB 3/4
RHINELANDER    CLEAR     50  48  93 N3        30.09S
EAGLE RIVER    FOG       44  44 100 CALM      30.09F VSB 1/4
LAND O LAKES   CLEAR     43  43  99 CALM      30.11S FOG
PHILLIPS       CLEAR     49  49 100 CALM      30.09S
TOMAHAWK       CLEAR     47  46  97 CALM      30.08F
MEDFORD        MOCLDY    53  53 100 NE5       30.05S
MERRILL        CLEAR     51  51  97 N5        30.07S
$$

WIZ029-030-035-036-043>047-291200-
CENTRAL WISCONSIN

CITY           SKY/WX    TMP DP  RH WIND       PRES   REMARKS
WAUSAU         PTCLDY    57  52  83 N3        30.03S
MOSINEE        PTCLDY    59  55  88 N7        30.05S
MARSHFIELD     PTCLDY    59  55  87 NE7       30.03S
STEVENS POINT  PTCLDY    55  54  95 NE6       30.03S
WAUPACA        MOCLDY    61  58  91 N5        30.02S
WAUTOMA        CLOUDY    59  57  93 NE6       30.02R
WISC RAPIDS    MOCLDY    61  52  72 NE8       30.03S
CAMP DOUGLAS   NOT AVBL
$$

WIZ011>013-019>022-031-037>040-048>050-291200-
NORTHEAST WISCONSIN

CITY           SKY/WX    TMP DP  RH WIND       PRES   REMARKS
ANTIGO         MOCLDY    55  52  90 NE7       30.06F
SHAWANO        CLOUDY    60  55  82 NE9       30.04S
OCONTO         CLOUDY    58  58 100 N5        30.03S
STURGEON BAY   CLOUDY    64  62  93 CALM      30.04R
GREEN BAY      CLOUDY    60  58  92 N10       30.02R
MANITOWOC      CLOUDY    64  63  94 N5        30.00S
APPLETON       CLOUDY    61  55  82 NE10      30.00S
CLINTONVILLE   CLOUDY    59  52  77 NE6       30.02F
OSHKOSH        CLOUDY    64  61  90 NE12      30.00S
$$

WIZ032>034-041-042-053>061-291200-
SOUTHWEST WISCONSIN

CITY           SKY/WX    TMP DP  RH WIND       PRES   REMARKS
LA CROSSE      CLOUDY    65  57  75 N6        29.99S
SPARTA         CLOUDY    63  56  79 NE7       30.01F
VIROQUA        CLOUDY    63  62  97 NE6       29.98F
BOSCOBEL       CLOUDY    67  62  84 NE5       29.96S
PRAIRIE DU CHI CLOUDY    65  61  86 CALM      29.95F
PLATTEVILLE    CLOUDY    66  64  96 NE7       29.96S
$$

WIZ056-057-062-063-064-067-068-291200-
SOUTH CENTRAL WISCONSIN

CITY           SKY/WX    TMP DP  RH WIND       PRES   REMARKS
REEDSBURG      CLOUDY    62  60  96 E5        29.99R
BARABOO/DELLS  CLOUDY    60  58  92 NE7       29.99S
LONE ROCK      NOT AVBL
MINERAL POINT  CLOUDY    64  63  94 NE8       29.96S
MADISON        LGT RAIN  63  62  97 NE13      29.96S FOG
MIDDLETON      CLOUDY    65  63  91 NE9G17    29.98S
WATERTOWN      CLOUDY    64  64 100 NE7       29.96S
MONROE         CLOUDY    64  61  88 NE10      29.95S
JANESVILLE     CLOUDY    68  64  88 NE9       29.94S
$$

WIZ051-052-058>065-066-070>072-291200-
SOUTHEAST WISCONSIN

CITY           SKY/WX    TMP DP  RH WIND       PRES   REMARKS
MILWAUKEE      CLOUDY    67  64  90 N12       29.95R
WAUKESHA       CLOUDY    64  63  94 N7        29.97S
MILWAUKEE/TIMM CLOUDY    66  63  88 NE8       29.97R
RACINE         CLOUDY    70  65  84 NE5       29.96R
BURLINGTON     CLOUDY    67  65  94 NE5       29.94S
KENOSHA        CLOUDY    68  66  93 N5        29.94S
FOND DU LAC    CLOUDY    64  61  90 NE8       30.00S
SHEBOYGAN      CLOUDY    64  62  93 N7        29.99R
WEST BEND      CLOUDY    63  61  94 NE5       29.98S
JUNEAU         CLOUDY    63  61  94 N7        29.99S
$$

LSZ147-162-291200-
LAKE SUPERIOR

STATION/POSITION TIME  TEMP    WIND        PRES    WAVE
                       AIR SEA DIR/SP/G            HT/PER
                 (UTC) (F)     (DEG/KT/KT) (MB)    (FT/S)
W MID LAKE BUOY  0950   61 60  340/  6/  6 1018.8F   0
DEVILS ISLAND    1000   62      20/  7/  8 1019.5R
SAXON HARBOR     1000   50     190/  5/  6 1019.0S
$$

LMZ867-665-643>646-291200-
LAKE MICHIGAN

STATION/POSITION TIME  TEMP    WIND        PRES    WAVE
                       AIR SEA DIR/SP/G            HT/PER
                 (UTC) (F)     (DEG/KT/KT) (MB)    (FT/S)
CHAMBERS ISLAND  1000   66      20/ 10/ 15 1016.9S
N MID LAKE BUOY  0950   68 69  100/ 12/ 14 1015.9R   2/ 4
NORTHPORT PIER   1000   65      40/  5/  8 1016.9S
SISTER BAY       1006   64      30/  2/  3   N/A
ALGOMA LAKESHORE 1043           90/ 11/ 13   N/A
KEWAUNEE LAKESHO 1000   64      70/ 10/ 12 1015.7R
SHEBOYGAN LAKESH 1000   61     350/ 12/ 13 1015.4S
PORT WASHINGTON  1000   66     360/  6/ 12 1015.2
ATWATER BUOY     1000   63 62   10/ 12/ 16 1015.6R
MILWAUKEE LAKESH 1010   65     350/ 11/ 13   N/A
S MID LAKE BUOY  0950   73 75   70/ 14/ 16 1012.7R   2/ 6
KENOSHA   LAKESH 1000   68     350/  8/ 10 1013.5R
$$

TC  - TEMPERATURE IN CELSIUS
VSB - VISIBILITY IN STATUTE MILES
WCI - WIND CHILL INDEX
HX  - HEAT INDEX




USA.gov is the U.S. government's official web portal to all federal, state and local government web resources and services.